sat.trackr.live / text

‹ back to catalog

STARLINK-34343

NORAD 64157 · 2025-112M

PAYLOAD ACTIVE UNKNOWN

§ Identity

Operator
Country
US
Launch date
2025-05-27
Launch site
AFWTR
Launch vehicle
Mass (kg)
RCS (m²)

External: N2YO · Heavens-Above · Gunter

§ Orbital elements

Epoch: 2026-05-25T03:11:36.727008Z

Period
95.78 min
Inclination
97.6128°
Eccentricity
0.0014447
Mean motion
15.03440545 rev/d
Perigee alt
546.3 km
Apogee alt
566.3 km
Semi-major
6,934.4 km
B*
1.2428e-3
RAAN
196.7014°
Arg perigee
0.4985°
Mean anomaly
359.6252°
Rev number
5,479

§ Raw data

STARLINK-343431 64157U 25112M   26145.13306397  .00016924  00000+0  12428-2 0  99942 64157  97.6128 196.7014 0014447   0.4985 359.6252 15.03440545 54790

JSON: /api/v1/satellites/64157 · /tle

For live sub-satellite position, see the globe view (requires WebGL).

§ Visibility from observer

Set your observer location to see the next 7 days of passes ≥ 10°. The values pass through the URL so the page stays shareable.

No JS? Fill the form by hand. The geolocation button needs JavaScript.